Tracking 27112 objects as of 26-Mar-2023
HD Live streaming from Space Station
objects crossing your sky now

TITAN 4B R/B

Track TITAN 4B R/B now!
10-day predictions
TITAN 4B R/B is classified as:


NORAD ID: 26474
Int'l Code: 2000-047B
Perigee: 543.0 km
Apogee: 615.3 km
Inclination: 68.0 °
Period: 96.1 minutes
Semi major axis: 6950 km
RCS: 15.6118 m2 (large)
Launch date: August 17, 2000
Source: United States (US)
Launch site: AIR FORCE WESTERN TEST RANGE (AFWTR)

Note: This is a ROCKET BODY
Your satellite tracking list
Your tracking list is empty




NASA's NSSDC Master Catalog

Two Line Element Set (TLE):
1 26474U 00047B   23084.65727678  .00005920  00000-0  49189-3 0  9999
2 26474  67.9943 169.7163 0052040 170.5187 189.6953 14.98348726230543
Source of the keplerian elements: AFSPC